Weather History for KLUK - September, 2013

Change the Weather History Date:

Saturday, September 21, 2013

  Actual Average Record
Temperature  
Mean Temperature 65 °F -  
Max Temperature 73 °F 76 °F 93 °F (2010)
Min Temperature 57 °F 55 °F 33 °F (1962)
Growing Degree Days 15 (Base 50)    
Moisture  
Dew Point 62 °F    
Average Humidity 86    
Maximum Humidity 100    
Minimum Humidity 42    
Precipitation  
Precipitation 0.48 in - - ()
Sea Level Pressure  
Sea Level Pressure 29.79 in    
Wind  
Wind Speed 4 mph (WNW)    
Max Wind Speed 13 mph    
Max Gust Speed 25 mph    
Visibility 6 miles    
Events Rain    
Averages and records for this station are not official NWS values.
T = Trace of Precipitation, MM = Missing Value Source: NWS Daily Summary

Daily Weather History Graph

Daily Weather History Graph

Search for Another Location

Airport or City:

Trip Planner

Search our weather history database for the weather conditions in past years. The results will help you decide how hot, cold, wet, or windy it might be!

Date:

Astronomy

Sep. 21, 2013 Rise Set
Actual Time 7:24 AM EDT 7:35 PM EDT
Civil Twilight 6:57 AM EDT 8:02 PM EDT
Nautical Twilight 6:26 AM EDT 8:33 PM EDT
Astronomical Twilight 5:54 AM EDT 9:05 PM EDT
Moon 8:47 PM EDT (9/21) 9:40 AM EDT (9/21)
Length of Visible Light 13h 04m
Length of Day
12h 11m
Waning Gibbous, 94% of the Moon is Illuminated
Sep 21
Waning Gibbous
Sep 26
Last Quarter
Oct 4
New
Oct 11
First Quarter
Oct 18
Full

Hourly Weather History & Observations

Time (EDT) Temp. Dew Point Humidity Pressure Visibility Wind Dir Wind Speed Gust Speed Precip Events Conditions
12:01 AM 69.8 °F 66.2 °F 88% 29.82 in 4.0 mi Calm Calm - 0.00 in Rain Rain
12:19 AM 68.0 °F 68.0 °F 100% 29.82 in 4.0 mi Calm Calm - N/A Rain Rain
12:49 AM 68.0 °F 68.0 °F 100% 29.81 in 2.5 mi Calm Calm - N/A Rain Heavy Rain
12:53 AM 68.0 °F 68.0 °F 100% 29.79 in 2.5 mi Calm Calm - N/A Rain Heavy Rain
1:04 AM 68.0 °F 68.0 °F 100% 29.80 in 3.0 mi Calm Calm - 0.03 in Rain Heavy Rain
1:12 AM 68.0 °F 68.0 °F 100% 29.80 in 2.0 mi Calm Calm - 0.09 in Rain Heavy Rain
1:19 AM 68.0 °F 68.0 °F 100% 29.80 in 1.5 mi NW 5.8 mph - 0.15 in Rain Heavy Rain
1:40 AM 68.0 °F 66.2 °F 94% 29.80 in 2.0 mi West 8.1 mph - 0.36 in Rain Heavy Rain
1:49 AM 68.0 °F 66.2 °F 94% 29.81 in 4.0 mi West 8.1 mph - 0.37 in Rain Rain
1:53 AM 68.0 °F 66.9 °F 96% 29.79 in 4.0 mi West 6.9 mph - 0.37 in Rain Rain
1:58 AM 68.0 °F 66.2 °F 94% 29.81 in 3.0 mi WSW 4.6 mph - 0.01 in Rain Rain
2:08 AM 68.0 °F 66.2 °F 94% 29.81 in 2.0 mi WSW 4.6 mph - 0.04 in Rain Heavy Rain
2:14 AM 68.0 °F 66.2 °F 94% 29.80 in 2.5 mi Calm Calm - 0.06 in Rain Heavy Rain
2:37 AM 66.2 °F 66.2 °F 100% 29.79 in 4.0 mi SSW 3.5 mph - 0.09 in Rain Rain
2:53 AM 66.9 °F 66.9 °F 100% 29.78 in 4.0 mi SSW 3.5 mph - 0.09 in Rain Rain
3:00 AM 66.2 °F 66.2 °F 100% 29.78 in 4.0 mi Calm Calm - 0.00 in Rain Rain
3:23 AM 66.2 °F 66.2 °F 100% 29.78 in 4.0 mi South 4.6 mph - N/A Rain Rain
3:34 AM 66.2 °F 66.2 °F 100% 29.78 in 3.0 mi South 3.5 mph - N/A Rain Heavy Rain
3:39 AM 66.2 °F 66.2 °F 100% 29.78 in 1.8 mi SSW 3.5 mph - N/A Rain Heavy Rain
3:53 AM 66.9 °F 66.9 °F 100% 29.76 in 1.8 mi Calm Calm - N/A Rain Heavy Rain
3:58 AM 66.2 °F 66.2 °F 100% 29.77 in 2.5 mi Calm Calm - 0.01 in Rain Heavy Rain
4:02 AM 68.0 °F 66.2 °F 94% 29.77 in 3.0 mi NW 4.6 mph - 0.02 in Rain Rain
4:13 AM 68.0 °F 66.2 °F 94% 29.77 in 4.0 mi WNW 5.8 mph - 0.02 in Rain Rain
4:37 AM 68.0 °F 64.4 °F 88% 29.76 in 6.0 mi WNW 3.5 mph - 0.02 in Rain Rain
4:53 AM 66.9 °F 64.9 °F 93% 29.74 in 5.0 mi NW 4.6 mph - 0.02 in Rain Rain
5:53 AM 66.9 °F 64.9 °F 93% 29.74 in 8.0 mi West 3.5 mph - N/A Rain Light Rain
6:01 AM 66.2 °F 64.4 °F 94% 29.75 in 6.0 mi WNW 3.5 mph - N/A Rain Rain
6:23 AM 66.2 °F 64.4 °F 94% 29.73 in 7.0 mi Calm Calm - N/A Rain Light Rain
6:53 AM 64.9 °F 64.9 °F 100% 29.72 in 10.0 mi Calm Calm - N/A Rain Light Rain
7:40 AM 64.4 °F 62.6 °F 94% 29.74 in 6.0 mi NW 12.7 mph 25.3 mph N/A Rain Rain
7:53 AM 63.0 °F 62.1 °F 97% 29.72 in 10.0 mi North 11.5 mph 16.1 mph N/A Rain Light Rain
8:53 AM 63.0 °F 60.1 °F 90% 29.76 in 10.0 mi West 8.1 mph - N/A   Overcast
9:53 AM 61.0 °F 57.9 °F 90% 29.79 in 10.0 mi West 8.1 mph - N/A   Overcast
10:30 AM 62.6 °F 59.0 °F 88% 29.80 in 10.0 mi WNW 6.9 mph - N/A   Mostly Cloudy
10:53 AM 62.1 °F 57.9 °F 86% 29.80 in 10.0 mi NNW 8.1 mph - N/A   Scattered Clouds
11:53 AM 63.0 °F 57.0 °F 81% 29.81 in 10.0 mi NNW 8.1 mph 18.4 mph N/A   Overcast
12:53 PM 68.0 °F 55.9 °F 65% 29.81 in 10.0 mi NNW 9.2 mph - N/A   Mostly Cloudy
1:53 PM 70.0 °F 55.9 °F 61% 29.80 in 10.0 mi WNW 11.5 mph - N/A   Mostly Cloudy
2:53 PM 70.0 °F 51.1 °F 51% 29.79 in 10.0 mi North 10.4 mph - N/A   Mostly Cloudy
3:53 PM 72.0 °F 48.9 °F 44% 29.79 in 10.0 mi NW 9.2 mph - N/A   Mostly Cloudy
4:53 PM 73.0 °F 48.9 °F 42% 29.78 in 10.0 mi NNW 9.2 mph - N/A   Scattered Clouds
5:53 PM 72.0 °F 48.0 °F 43% 29.79 in 10.0 mi NW 6.9 mph - N/A   Scattered Clouds
6:53 PM 69.1 °F 50.0 °F 51% 29.81 in 10.0 mi NNW 11.5 mph 17.3 mph N/A   Mostly Cloudy
7:53 PM 66.0 °F 50.0 °F 56% 29.82 in 10.0 mi NNW 6.9 mph - N/A   Mostly Cloudy
8:53 PM 64.0 °F 51.1 °F 63% 29.84 in 10.0 mi NW 5.8 mph - N/A   Clear
9:53 PM 57.0 °F 54.0 °F 89% 29.86 in 10.0 mi Calm Calm - N/A   Clear
10:53 PM 57.0 °F 52.0 °F 83% 29.88 in 10.0 mi Calm Calm - N/A   Clear
11:53 PM 59.0 °F 48.0 °F 67% 29.90 in 10.0 mi North 9.2 mph - N/A   Clear